TOM9FG LMML-EGCC

Flight info

Callsign TOM9FG
Flight time 3h 16m
Altitude 34000
Route GZO M622 SOPIR DCT MABOX DCT ADEXI DCT ABESI DCT UTAVO DCT HOC DCT LUL DCT RLP DCT ROTSI DCT KOTUN DCT AMAXA DCT VESAN DCT RATUK DCT SOVAT L613 SANDY UN57 WELIN T420 ELVOS
Aircraft B738/M-SDE2E3FGHIRWXY/LB1

Departure

Time 2026-05-04 09:46
Airport Malta International Airport (LMML)

Arrival

Time 2026-05-04 13:02
Airport Manchester Airport (EGCC)
Time Latitude Longitude Altitude Speed Heading
2026-05-04 09:17 35.84950 14.49337 258 ft 0 kts 359°
2026-05-04 09:38 35.84930 14.49337 258 ft 4 kts 352°
2026-05-04 09:39 35.84904 14.49344 258 ft 4 kts 339°
2026-05-04 09:39 35.84890 14.49351 258 ft 0 kts 338°
2026-05-04 09:42 35.84997 14.48864 257 ft 12 kts 284°
2026-05-04 09:43 35.85019 14.48764 261 ft 12 kts 284°
2026-05-04 09:43 35.85043 14.48666 264 ft 13 kts 290°
2026-05-04 09:43 35.85106 14.48552 269 ft 19 kts 305°
2026-05-04 09:43 35.85212 14.48414 271 ft 28 kts 314°
2026-05-04 09:44 35.85356 14.48229 271 ft 30 kts 317°
2026-05-04 09:44 35.85516 14.48079 271 ft 28 kts 335°
2026-05-04 09:44 35.85659 14.48012 271 ft 16 kts 319°
2026-05-04 09:46 35.81867 14.51439 1931 ft 191 kts 195°
2026-05-04 09:46 35.80735 14.50453 2223 ft 217 kts 235°
2026-05-04 09:46 35.79966 14.48769 2573 ft 235 kts 238°
2026-05-04 09:47 35.79093 14.46951 2910 ft 255 kts 238°
2026-05-04 09:47 35.78176 14.45064 3785 ft 255 kts 238°
2026-05-04 09:49 35.79437 14.32054 9013 ft 278 kts 338°
2026-05-04 09:49 35.81229 14.31200 9872 ft 277 kts 339°
2026-05-04 09:49 35.83057 14.30354 10498 ft 283 kts 339°
2026-05-04 09:51 35.96032 14.24217 13177 ft 353 kts 338°
2026-05-04 09:51 35.98335 14.23116 13857 ft 356 kts 338°
2026-05-04 09:51 36.00657 14.22005 14490 ft 358 kts 338°
2026-05-04 09:51 36.02987 14.20886 15091 ft 361 kts 336°
2026-05-04 09:52 36.05209 14.19438 15677 ft 363 kts 324°
2026-05-04 09:52 36.07260 14.17621 16343 ft 363 kts 323°
2026-05-04 09:52 36.09267 14.15790 16990 ft 364 kts 322°
2026-05-04 09:52 36.11309 14.13927 17613 ft 366 kts 323°
2026-05-04 09:53 36.13377 14.12054 18222 ft 368 kts 323°
2026-05-04 09:53 36.15457 14.10184 18795 ft 370 kts 323°
2026-05-04 09:53 36.17551 14.08312 19299 ft 373 kts 323°
2026-05-04 09:53 36.19665 14.06429 19825 ft 375 kts 323°
2026-05-04 09:54 36.21789 14.04539 20343 ft 376 kts 323°
2026-05-04 09:54 36.23920 14.02644 20833 ft 379 kts 323°
2026-05-04 09:54 36.26069 14.00734 21320 ft 381 kts 323°
2026-05-04 09:54 36.28226 13.98815 21801 ft 383 kts 322°
2026-05-04 09:55 36.30371 13.96904 22272 ft 385 kts 322°
2026-05-04 09:55 36.32553 13.94960 22730 ft 387 kts 322°
2026-05-04 09:55 36.34748 13.93003 23192 ft 390 kts 322°
2026-05-04 09:55 36.36955 13.91033 23647 ft 392 kts 322°
2026-05-04 09:56 36.39174 13.89052 24038 ft 394 kts 322°
2026-05-04 09:56 36.41398 13.87064 24426 ft 395 kts 322°
2026-05-04 09:56 36.43631 13.85066 24773 ft 397 kts 322°
2026-05-04 09:56 36.45886 13.83049 25067 ft 401 kts 322°
2026-05-04 09:57 36.48161 13.81013 25468 ft 402 kts 322°
2026-05-04 09:57 36.50425 13.78984 25883 ft 402 kts 322°
2026-05-04 09:57 36.52696 13.76950 26259 ft 402 kts 322°
2026-05-04 09:57 36.54972 13.74907 26605 ft 404 kts 322°
2026-05-04 09:58 36.57259 13.72853 26945 ft 405 kts 322°
2026-05-04 09:58 36.59548 13.70796 27297 ft 406 kts 322°
2026-05-04 09:58 36.61819 13.68755 27636 ft 408 kts 322°
2026-05-04 10:00 36.78012 13.54150 30351 ft 404 kts 322°
2026-05-04 10:00 36.80280 13.52100 30770 ft 401 kts 322°
2026-05-04 10:02 36.95861 13.37960 33276 ft 388 kts 321°
2026-05-04 10:04 37.11229 13.23940 34210 ft 391 kts 320°
2026-05-04 10:04 37.15594 13.19946 34202 ft 386 kts 320°
2026-05-04 10:05 37.19917 13.15988 34207 ft 384 kts 320°
2026-05-04 10:05 37.24224 13.12035 34201 ft 384 kts 320°
2026-05-04 10:06 37.28508 13.08097 34212 ft 384 kts 320°
2026-05-04 10:06 37.32842 13.04144 34203 ft 387 kts 323°
2026-05-04 10:08 37.48394 12.97062 34216 ft 401 kts 337°
2026-05-04 10:08 37.51063 12.96023 34207 ft 402 kts 337°
2026-05-04 10:08 37.56408 12.93928 34200 ft 402 kts 337°
2026-05-04 10:09 37.61747 12.91823 34197 ft 401 kts 337°
2026-05-04 10:09 37.67046 12.89726 34191 ft 400 kts 337°
2026-05-04 10:10 37.72360 12.87622 34191 ft 399 kts 337°
2026-05-04 10:10 37.77653 12.85522 34181 ft 398 kts 337°
2026-05-04 10:11 37.82936 12.83424 34179 ft 397 kts 337°
2026-05-04 10:11 37.88155 12.81341 34181 ft 396 kts 337°
2026-05-04 10:12 37.93396 12.79254 34187 ft 394 kts 337°
2026-05-04 10:12 37.98626 12.77167 34198 ft 393 kts 337°
2026-05-04 10:13 38.03850 12.75080 34183 ft 394 kts 337°
2026-05-04 10:13 38.09080 12.72985 34173 ft 395 kts 337°
2026-05-04 10:14 38.14322 12.70882 34176 ft 396 kts 337°
2026-05-04 10:16 38.35396 12.62400 34173 ft 397 kts 337°
2026-05-04 10:16 38.39779 12.60629 34173 ft 398 kts 337°
2026-05-04 10:17 38.45062 12.58490 34193 ft 398 kts 337°
2026-05-04 10:19 38.66183 12.49915 34179 ft 398 kts 337°
2026-05-04 10:19 38.71469 12.47760 34179 ft 398 kts 337°
2026-05-04 10:20 38.76718 12.45617 34178 ft 398 kts 337°
2026-05-04 10:20 38.81994 12.43458 34178 ft 398 kts 336°
2026-05-04 10:21 38.87270 12.41298 34178 ft 397 kts 337°
2026-05-04 10:21 38.92533 12.39142 34195 ft 397 kts 336°
2026-05-04 10:22 39.00443 12.35889 34183 ft 398 kts 336°
2026-05-04 10:23 39.05716 12.33717 34183 ft 398 kts 336°
2026-05-04 10:25 39.26851 12.24975 34178 ft 402 kts 336°
2026-05-04 10:25 39.32176 12.22766 34177 ft 402 kts 336°
2026-05-04 10:26 39.37509 12.20549 34177 ft 403 kts 336°
2026-05-04 10:26 39.42849 12.18325 34178 ft 404 kts 336°
2026-05-04 10:27 39.48205 12.16091 34177 ft 405 kts 336°
2026-05-04 10:27 39.53575 12.13846 34175 ft 406 kts 336°
2026-05-04 10:28 39.58954 12.11595 34176 ft 406 kts 336°
2026-05-04 10:28 39.64303 12.09354 34170 ft 407 kts 336°
2026-05-04 10:29 39.69701 12.07087 34176 ft 408 kts 336°
2026-05-04 10:29 39.75102 12.04817 34173 ft 408 kts 336°
2026-05-04 10:30 39.80501 12.02542 34167 ft 408 kts 335°
2026-05-04 10:30 39.85909 12.00265 34189 ft 408 kts 335°
2026-05-04 10:31 39.91314 11.97982 34175 ft 409 kts 335°
2026-05-04 10:32 40.10212 11.89908 34166 ft 409 kts 335°
2026-05-04 10:33 40.15598 11.87641 34168 ft 409 kts 335°
2026-05-04 10:33 40.21027 11.85336 34157 ft 410 kts 335°
2026-05-04 10:34 40.26454 11.83021 34164 ft 410 kts 335°
2026-05-04 10:34 40.31869 11.80715 34156 ft 409 kts 335°
2026-05-04 10:35 40.37280 11.78398 34166 ft 408 kts 335°
2026-05-04 10:35 40.42674 11.76083 34170 ft 408 kts 335°
2026-05-04 10:36 40.48027 11.73780 34166 ft 407 kts 335°
2026-05-04 10:36 40.53420 11.71455 34161 ft 408 kts 334°
2026-05-04 10:37 40.58803 11.69112 34171 ft 406 kts 335°
2026-05-04 10:37 40.64186 11.66794 34161 ft 407 kts 335°
2026-05-04 10:39 40.83124 11.58585 34169 ft 413 kts 335°
2026-05-04 10:40 40.88595 11.56203 34166 ft 415 kts 335°
2026-05-04 10:40 40.94096 11.53800 34166 ft 416 kts 335°
2026-05-04 10:41 40.99608 11.51385 34170 ft 417 kts 335°
2026-05-04 10:41 41.05132 11.48969 34167 ft 419 kts 335°
2026-05-04 10:42 41.10629 11.46560 34169 ft 419 kts 335°
2026-05-04 10:42 41.16173 11.44125 34159 ft 419 kts 335°
2026-05-04 10:43 41.21707 11.41686 34177 ft 419 kts 335°
2026-05-04 10:45 41.43897 11.31873 34174 ft 420 kts 336°
2026-05-04 10:45 41.49422 11.29419 34167 ft 421 kts 335°
2026-05-04 10:46 41.54993 11.26939 34154 ft 423 kts 335°
2026-05-04 10:46 41.60578 11.24448 34160 ft 423 kts 335°
2026-05-04 10:47 41.66170 11.21949 34182 ft 424 kts 336°
2026-05-04 10:47 41.71785 11.19435 34175 ft 425 kts 336°
2026-05-04 10:49 41.94375 11.09276 34294 ft 435 kts 336°
2026-05-04 10:49 41.97247 11.07979 34522 ft 435 kts 336°
2026-05-04 10:50 42.00111 11.06688 34874 ft 431 kts 336°
2026-05-04 10:51 42.19736 10.97786 36159 ft 426 kts 336°
2026-05-04 10:52 42.22539 10.96509 36154 ft 424 kts 335°
2026-05-04 10:52 42.28121 10.93964 36162 ft 422 kts 335°
2026-05-04 10:54 42.50221 10.83842 36161 ft 419 kts 335°
2026-05-04 10:56 42.72490 10.73561 36169 ft 425 kts 336°
2026-05-04 10:57 42.78068 10.70975 36162 ft 427 kts 336°
2026-05-04 10:57 42.83702 10.68357 36157 ft 428 kts 336°
2026-05-04 10:58 42.89361 10.65723 36155 ft 429 kts 336°
2026-05-04 10:58 42.95024 10.63086 36165 ft 430 kts 336°
2026-05-04 10:59 43.00699 10.60431 36158 ft 431 kts 336°
2026-05-04 10:59 43.06338 10.57787 36161 ft 431 kts 336°
2026-05-04 11:00 43.12012 10.55125 36153 ft 432 kts 336°
2026-05-04 11:02 43.34706 10.44428 36151 ft 430 kts 336°
2026-05-04 11:05 43.76336 10.24572 36153 ft 435 kts 336°
2026-05-04 11:06 43.82070 10.21815 36148 ft 437 kts 337°
2026-05-04 11:06 43.87819 10.19047 36154 ft 438 kts 336°
2026-05-04 11:10 44.28293 9.99387 36149 ft 442 kts 337°
2026-05-04 11:12 44.51570 9.87949 36131 ft 443 kts 337°
2026-05-04 11:12 44.57379 9.85078 36134 ft 442 kts 337°
2026-05-04 11:13 44.63180 9.82206 36126 ft 442 kts 337°
2026-05-04 11:13 44.68981 9.79327 36108 ft 442 kts 336°
2026-05-04 11:14 44.74752 9.76457 36115 ft 442 kts 336°
2026-05-04 11:16 44.97972 9.64853 36111 ft 443 kts 337°
2026-05-04 11:16 45.03782 9.61935 36112 ft 443 kts 337°
2026-05-04 11:17 45.09604 9.59002 36117 ft 444 kts 337°
2026-05-04 11:19 45.32953 9.47177 36158 ft 448 kts 337°
2026-05-04 11:19 45.38827 9.44188 36192 ft 449 kts 337°
2026-05-04 11:20 45.44714 9.41180 36197 ft 450 kts 337°
2026-05-04 11:20 45.50604 9.38170 36205 ft 449 kts 337°
2026-05-04 11:22 45.74205 9.26033 36116 ft 451 kts 337°
2026-05-04 11:23 45.80075 9.22997 36125 ft 451 kts 337°
2026-05-04 11:25 46.00678 9.12286 36156 ft 450 kts 337°
2026-05-04 11:25 46.06574 9.09206 36134 ft 451 kts 337°
2026-05-04 11:27 46.34373 9.01828 36118 ft 458 kts 352°
2026-05-04 11:28 46.40575 9.00020 36110 ft 452 kts 334°
2026-05-04 11:28 46.45848 8.95259 36098 ft 443 kts 316°
2026-05-04 11:29 46.50429 8.89432 36106 ft 438 kts 315°
2026-05-04 11:29 46.55027 8.83588 36098 ft 439 kts 315°
2026-05-04 11:33 46.87767 8.42385 35999 ft 446 kts 315°
2026-05-04 11:33 46.92452 8.36436 36003 ft 446 kts 315°
2026-05-04 11:34 46.97140 8.30474 35987 ft 446 kts 315°
2026-05-04 11:34 47.01804 8.24520 35993 ft 444 kts 315°
2026-05-04 11:35 47.06459 8.18566 36013 ft 443 kts 314°
2026-05-04 11:35 47.11097 8.12622 35992 ft 442 kts 314°
2026-05-04 11:36 47.15721 8.06679 35987 ft 441 kts 314°
2026-05-04 11:36 47.20296 8.00784 35998 ft 439 kts 314°
2026-05-04 11:37 47.24889 7.94850 35988 ft 439 kts 314°
2026-05-04 11:37 47.29479 7.88910 36007 ft 439 kts 314°
2026-05-04 11:38 47.34079 7.82941 36009 ft 440 kts 314°
2026-05-04 11:38 47.38684 7.76949 36009 ft 441 kts 314°
2026-05-04 11:39 47.43292 7.70936 36019 ft 442 kts 313°
2026-05-04 11:40 47.49987 7.46946 36010 ft 427 kts 279°
2026-05-04 11:41 47.50674 7.42660 36015 ft 427 kts 279°
2026-05-04 11:41 47.52067 7.34105 36000 ft 428 kts 279°
2026-05-04 11:42 47.53478 7.25530 36013 ft 428 kts 279°
2026-05-04 11:42 47.54877 7.17018 36008 ft 428 kts 279°
2026-05-04 11:43 47.56274 7.08461 36024 ft 427 kts 279°
2026-05-04 11:43 47.57667 6.99901 36019 ft 427 kts 279°
2026-05-04 11:44 47.59049 6.91354 36017 ft 426 kts 279°
2026-05-04 11:44 47.60421 6.82824 36024 ft 425 kts 279°
2026-05-04 11:45 47.61783 6.74315 36023 ft 423 kts 279°
2026-05-04 11:45 47.63136 6.65818 36027 ft 423 kts 279°
2026-05-04 11:46 47.64478 6.57327 36021 ft 423 kts 278°
2026-05-04 11:46 47.65811 6.48872 36021 ft 424 kts 278°
2026-05-04 11:47 47.67149 6.40338 36033 ft 425 kts 278°
2026-05-04 11:47 47.68482 6.31790 36029 ft 426 kts 278°
2026-05-04 11:48 47.70091 6.23250 36034 ft 430 kts 283°
2026-05-04 11:48 47.71931 6.14782 36024 ft 431 kts 283°
2026-05-04 11:49 47.73755 6.06343 36023 ft 432 kts 283°
2026-05-04 11:49 47.75563 5.97818 36021 ft 432 kts 282°
2026-05-04 11:50 47.77357 5.89278 36045 ft 432 kts 282°
2026-05-04 11:50 47.79143 5.80735 36030 ft 432 kts 282°
2026-05-04 11:51 47.80925 5.72170 36022 ft 434 kts 282°
2026-05-04 11:51 47.82694 5.63643 36015 ft 433 kts 282°
2026-05-04 11:52 47.84466 5.55073 36012 ft 433 kts 282°
2026-05-04 11:52 47.86226 5.46493 36014 ft 433 kts 281°
2026-05-04 11:53 47.88009 5.37915 36015 ft 433 kts 282°
2026-05-04 11:53 47.89758 5.29321 36012 ft 435 kts 284°
2026-05-04 11:55 48.04745 5.01648 35998 ft 455 kts 307°
2026-05-04 11:56 48.08971 4.94654 35988 ft 454 kts 307°
2026-05-04 11:56 48.13195 4.87627 35997 ft 454 kts 307°
2026-05-04 11:57 48.17412 4.80597 35994 ft 454 kts 307°
2026-05-04 11:57 48.21630 4.73544 36006 ft 455 kts 307°
2026-05-04 11:58 48.25861 4.66461 35997 ft 456 kts 307°
2026-05-04 11:58 48.30082 4.59369 35978 ft 455 kts 307°
2026-05-04 11:59 48.34300 4.52273 35976 ft 455 kts 307°
2026-05-04 11:59 48.38499 4.45177 35982 ft 454 kts 306°
2026-05-04 12:00 48.42685 4.38085 35984 ft 453 kts 306°
2026-05-04 12:00 48.46857 4.30998 36001 ft 452 kts 306°
2026-05-04 12:01 48.51027 4.23894 35994 ft 452 kts 306°
2026-05-04 12:02 48.65615 3.98898 35988 ft 456 kts 306°
2026-05-04 12:03 48.69818 3.91654 35992 ft 459 kts 306°
2026-05-04 12:03 48.74320 3.84831 35985 ft 466 kts 319°
2026-05-04 12:04 48.79586 3.79118 35987 ft 465 kts 320°
2026-05-04 12:04 48.84885 3.73474 35976 ft 464 kts 320°
2026-05-04 12:05 48.90136 3.67781 35979 ft 462 kts 320°
2026-05-04 12:05 48.95344 3.62064 35985 ft 461 kts 320°
2026-05-04 12:06 49.00547 3.56323 35996 ft 462 kts 320°
2026-05-04 12:06 49.05762 3.50559 35998 ft 462 kts 320°
2026-05-04 12:07 49.10966 3.44793 35985 ft 462 kts 320°
2026-05-04 12:07 49.16134 3.39052 35981 ft 462 kts 320°
2026-05-04 12:08 49.21322 3.33272 35985 ft 461 kts 320°
2026-05-04 12:08 49.26515 3.27468 35986 ft 462 kts 320°
2026-05-04 12:09 49.31712 3.21652 35982 ft 462 kts 319°
2026-05-04 12:09 49.36901 3.15826 35978 ft 462 kts 319°
2026-05-04 12:10 49.42085 3.09990 35993 ft 462 kts 320°
2026-05-04 12:10 49.47274 3.04130 35983 ft 463 kts 320°
2026-05-04 12:11 49.52465 2.98254 35983 ft 463 kts 320°
2026-05-04 12:11 49.57620 2.92404 35984 ft 463 kts 320°
2026-05-04 12:12 49.62807 2.86501 35980 ft 464 kts 319°
2026-05-04 12:12 49.67998 2.80574 35984 ft 464 kts 319°
2026-05-04 12:14 49.88879 2.57049 35984 ft 464 kts 321°
2026-05-04 12:15 49.94126 2.51229 36002 ft 464 kts 320°
2026-05-04 12:15 49.99341 2.45409 35992 ft 464 kts 320°
2026-05-04 12:16 50.04588 2.39530 35986 ft 464 kts 320°
2026-05-04 12:16 50.09818 2.33654 35986 ft 463 kts 320°
2026-05-04 12:17 50.15040 2.27772 36004 ft 463 kts 321°
2026-05-04 12:17 50.20259 2.21878 35996 ft 463 kts 320°
2026-05-04 12:18 50.25479 2.15967 35986 ft 463 kts 320°
2026-05-04 12:18 50.30657 2.10085 36004 ft 463 kts 320°
2026-05-04 12:19 50.35876 2.04143 35980 ft 464 kts 320°
2026-05-04 12:19 50.40921 1.97876 36000 ft 461 kts 315°
2026-05-04 12:20 50.45707 1.91196 35998 ft 460 kts 314°
2026-05-04 12:20 50.50501 1.84520 36004 ft 460 kts 315°
2026-05-04 12:21 50.55296 1.77929 35991 ft 461 kts 315°
2026-05-04 12:21 50.60136 1.71295 35995 ft 460 kts 315°
2026-05-04 12:22 50.64946 1.64675 36021 ft 458 kts 315°
2026-05-04 12:22 50.69737 1.58052 36007 ft 457 kts 315°
2026-05-04 12:23 50.74516 1.51423 36013 ft 456 kts 315°
2026-05-04 12:23 50.79255 1.44836 36021 ft 456 kts 315°
2026-05-04 12:24 50.84020 1.38201 36032 ft 455 kts 315°
2026-05-04 12:24 50.88770 1.31568 36020 ft 455 kts 315°
2026-05-04 12:25 50.93517 1.24917 36022 ft 456 kts 315°
2026-05-04 12:25 50.98239 1.18281 36022 ft 456 kts 315°
2026-05-04 12:26 51.02992 1.11587 36021 ft 457 kts 315°
2026-05-04 12:26 51.07738 1.04842 36020 ft 457 kts 314°
2026-05-04 12:27 51.12311 0.97802 36025 ft 457 kts 312°
2026-05-04 12:27 51.16841 0.90653 36011 ft 459 kts 312°
2026-05-04 12:28 51.21389 0.83516 35995 ft 460 kts 313°
2026-05-04 12:28 51.25962 0.76370 35989 ft 460 kts 313°
2026-05-04 12:29 51.30526 0.69225 35985 ft 459 kts 313°
2026-05-04 12:29 51.35051 0.62117 36021 ft 459 kts 313°
2026-05-04 12:30 51.39601 0.54949 36014 ft 458 kts 313°
2026-05-04 12:30 51.44130 0.47792 36032 ft 457 kts 313°
2026-05-04 12:31 51.48642 0.40642 36017 ft 456 kts 313°
2026-05-04 12:31 51.53154 0.33468 36018 ft 455 kts 313°
2026-05-04 12:32 51.59891 0.22720 36025 ft 454 kts 313°
2026-05-04 12:33 51.64341 0.15595 36019 ft 454 kts 313°
2026-05-04 12:33 51.68778 0.08378 36014 ft 453 kts 312°
2026-05-04 12:34 51.73197 0.01096 36042 ft 453 kts 312°
2026-05-04 12:34 51.77600 -0.06179 36068 ft 453 kts 313°
2026-05-04 12:35 51.82011 -0.13474 35869 ft 456 kts 313°
2026-05-04 12:35 51.84224 -0.17138 35512 ft 452 kts 313°
2026-05-04 12:35 51.86408 -0.20759 35102 ft 447 kts 313°
2026-05-04 12:35 51.88571 -0.24352 34716 ft 444 kts 313°
2026-05-04 12:36 51.90718 -0.27924 34318 ft 440 kts 313°
2026-05-04 12:36 51.92817 -0.31423 33908 ft 437 kts 313°
2026-05-04 12:36 51.94927 -0.34944 33452 ft 434 kts 313°
2026-05-04 12:36 51.97023 -0.38446 33032 ft 430 kts 312°
2026-05-04 12:37 51.99099 -0.41919 32638 ft 426 kts 312°
2026-05-04 12:37 52.01155 -0.45365 32235 ft 423 kts 311°
2026-05-04 12:37 52.03190 -0.48781 31848 ft 419 kts 311°
2026-05-04 12:37 52.05208 -0.52172 31467 ft 415 kts 311°
2026-05-04 12:38 52.07204 -0.55531 31097 ft 412 kts 311°
2026-05-04 12:38 52.09189 -0.58876 30727 ft 408 kts 311°
2026-05-04 12:38 52.11154 -0.62193 30356 ft 405 kts 311°
2026-05-04 12:38 52.13101 -0.65489 29962 ft 402 kts 310°
2026-05-04 12:39 52.15034 -0.68758 29545 ft 399 kts 310°
2026-05-04 12:39 52.16946 -0.71995 29163 ft 394 kts 310°
2026-05-04 12:39 52.18833 -0.75196 28782 ft 390 kts 310°
2026-05-04 12:39 52.20702 -0.78372 28399 ft 387 kts 310°
2026-05-04 12:40 52.21933 -0.80465 28139 ft 384 kts 310°
2026-05-04 12:40 52.24396 -0.84569 27654 ft 381 kts 315°
2026-05-04 12:40 52.26513 -0.87176 27288 ft 381 kts 325°
2026-05-04 12:40 52.28771 -0.89417 26927 ft 379 kts 327°
2026-05-04 12:41 52.31033 -0.91607 26563 ft 376 kts 327°
2026-05-04 12:41 52.32521 -0.93047 26314 ft 374 kts 327°
2026-05-04 12:41 52.34747 -0.95222 25960 ft 372 kts 326°
2026-05-04 12:41 52.36958 -0.97405 25604 ft 370 kts 326°
2026-05-04 12:42 52.39152 -0.99588 25258 ft 368 kts 327°
2026-05-04 12:42 52.41330 -1.01767 24897 ft 366 kts 327°
2026-05-04 12:42 52.43500 -1.03938 24522 ft 365 kts 327°
2026-05-04 12:42 52.45661 -1.06102 24168 ft 363 kts 327°
2026-05-04 12:43 52.47808 -1.08257 23813 ft 361 kts 326°
2026-05-04 12:43 52.49949 -1.10409 23428 ft 360 kts 326°
2026-05-04 12:43 52.52076 -1.12547 23032 ft 358 kts 327°
2026-05-04 12:43 52.54194 -1.14679 22654 ft 355 kts 327°
2026-05-04 12:44 52.56292 -1.16794 22301 ft 352 kts 327°
2026-05-04 12:44 52.58375 -1.18895 21940 ft 350 kts 327°
2026-05-04 12:44 52.60440 -1.20981 21588 ft 347 kts 327°
2026-05-04 12:44 52.62487 -1.23050 21241 ft 344 kts 327°
2026-05-04 12:45 52.64521 -1.25107 20899 ft 342 kts 327°
2026-05-04 12:45 52.66543 -1.27155 20565 ft 340 kts 327°
2026-05-04 12:45 52.68527 -1.29167 20235 ft 338 kts 327°
2026-05-04 12:45 52.70523 -1.31193 19883 ft 337 kts 327°
2026-05-04 12:46 52.72530 -1.33234 19500 ft 341 kts 327°
2026-05-04 12:46 52.74554 -1.35295 19161 ft 344 kts 327°
2026-05-04 12:46 52.76596 -1.37377 18764 ft 345 kts 327°
2026-05-04 12:46 52.78641 -1.39464 18355 ft 346 kts 327°
2026-05-04 12:47 52.80684 -1.41552 17897 ft 345 kts 327°
2026-05-04 12:47 52.82728 -1.43644 17458 ft 345 kts 326°
2026-05-04 12:47 52.84767 -1.45733 17042 ft 344 kts 327°
2026-05-04 12:47 52.86797 -1.47814 16634 ft 343 kts 327°
2026-05-04 12:48 52.88821 -1.49892 16219 ft 342 kts 327°
2026-05-04 12:48 52.90838 -1.51964 15828 ft 340 kts 327°
2026-05-04 12:48 52.92838 -1.54022 15453 ft 338 kts 327°
2026-05-04 12:48 52.94838 -1.56082 15046 ft 337 kts 327°
2026-05-04 12:49 52.96805 -1.58111 14661 ft 337 kts 327°
2026-05-04 12:49 52.98792 -1.60162 14268 ft 336 kts 327°
2026-05-04 12:49 53.00779 -1.62215 13873 ft 335 kts 327°
2026-05-04 12:49 53.02754 -1.64258 13434 ft 334 kts 327°
2026-05-04 12:50 53.04726 -1.66303 13017 ft 332 kts 326°
2026-05-04 12:50 53.06471 -1.68773 12606 ft 329 kts 309°
2026-05-04 12:50 53.07910 -1.71701 12232 ft 326 kts 308°
2026-05-04 12:50 53.09353 -1.74597 11846 ft 324 kts 309°
2026-05-04 12:51 53.10801 -1.77445 11473 ft 322 kts 309°
2026-05-04 12:51 53.12245 -1.80262 11094 ft 316 kts 309°
2026-05-04 12:51 53.13661 -1.83013 10720 ft 310 kts 309°
2026-05-04 12:51 53.15050 -1.85711 10361 ft 303 kts 309°
2026-05-04 12:52 53.16408 -1.88353 10013 ft 298 kts 309°
2026-05-04 12:52 53.17714 -1.90895 10006 ft 280 kts 309°
2026-05-04 12:52 53.18961 -1.93328 9414 ft 284 kts 309°
2026-05-04 12:52 53.20232 -1.95814 9020 ft 280 kts 309°
2026-05-04 12:53 53.21490 -1.98284 8652 ft 277 kts 309°
2026-05-04 12:53 53.22734 -2.00713 8314 ft 273 kts 308°
2026-05-04 12:53 53.23634 -2.03415 8087 ft 262 kts 282°
2026-05-04 12:53 53.23742 -2.06367 8030 ft 254 kts 258°
2026-05-04 12:54 53.23188 -2.09197 7768 ft 260 kts 250°
2026-05-04 12:54 53.22567 -2.12048 7417 ft 263 kts 250°
2026-05-04 12:54 53.21941 -2.14934 7076 ft 265 kts 250°
2026-05-04 12:54 53.21310 -2.17843 6736 ft 267 kts 250°
2026-05-04 12:55 53.20676 -2.20767 6393 ft 269 kts 250°
2026-05-04 12:55 53.20046 -2.23666 6047 ft 270 kts 250°
2026-05-04 12:55 53.19400 -2.26624 5672 ft 271 kts 250°
2026-05-04 12:55 53.18751 -2.29585 5314 ft 273 kts 250°
2026-05-04 12:56 53.18102 -2.32547 5099 ft 268 kts 250°
2026-05-04 12:56 53.17470 -2.35400 5070 ft 257 kts 250°
2026-05-04 12:56 53.16862 -2.38130 5048 ft 245 kts 250°
2026-05-04 12:56 53.16271 -2.40780 4924 ft 246 kts 250°
2026-05-04 12:57 53.15673 -2.43460 4707 ft 245 kts 250°
2026-05-04 12:57 53.15118 -2.46132 4446 ft 243 kts 258°
2026-05-04 12:57 53.15252 -2.48882 4149 ft 240 kts 296°
2026-05-04 12:57 53.16366 -2.50832 3934 ft 232 kts 335°
2026-05-04 12:58 53.17898 -2.51460 3694 ft 224 kts 351°
2026-05-04 12:58 53.19425 -2.51850 3433 ft 219 kts 351°
2026-05-04 12:58 53.20919 -2.52239 3177 ft 214 kts 351°
2026-05-04 12:58 53.22360 -2.52373 3051 ft 202 kts 15°
2026-05-04 12:59 53.23454 -2.51126 3100 ft 194 kts 51°
2026-05-04 12:59 53.24300 -2.49320 3000 ft 200 kts 50°
2026-05-04 12:59 53.25197 -2.47536 2749 ft 199 kts 50°
2026-05-04 12:59 53.26072 -2.45750 2477 ft 200 kts 51°
2026-05-04 13:00 53.26941 -2.43960 2204 ft 198 kts 51°
2026-05-04 13:00 53.27803 -2.42176 1933 ft 197 kts 51°
2026-05-04 13:00 53.28652 -2.40422 1673 ft 189 kts 51°
2026-05-04 13:00 53.29446 -2.38763 1413 ft 176 kts 51°
2026-05-04 13:01 53.30207 -2.37210 1165 ft 170 kts 51°
2026-05-04 13:01 53.30950 -2.35677 949 ft 169 kts 51°
2026-05-04 13:01 53.31667 -2.34205 703 ft 158 kts 51°
2026-05-04 13:01 53.32336 -2.32827 489 ft 149 kts 51°
2026-05-04 13:02 53.32981 -2.31495 325 ft 145 kts 51°
2026-05-04 13:02 53.33603 -2.30194 232 ft 136 kts 46°
2026-05-04 13:02 53.34104 -2.29200 230 ft 71 kts 49°
2026-05-04 13:02 53.34319 -2.28737 224 ft 44 kts 54°
2026-05-04 13:03 53.34503 -2.28366 226 ft 39 kts 47°